FW8707 Weather Reports


Display with metric or nautical units.
time (UTC)temp
F
wind
direction
speed
MPH
gust
MPH
rain 1hr
in
rain 24hr
in
rain mn
in
humidity
%
barometer
mb
20260904201009 95 55 1.0 8.0 0.00 0.00 0.00 19 1016.2
20260904200510 95 67 3.0 10.0 0.00 0.00 0.00 20 1016.3
20260904200020 94 73 4.0 10.0 0.00 0.00 0.00 21 1016.3
20260904195515 94 58 1.0 5.0 0.00 0.00 0.00 20 1016.3
20260904195011 94 56 2.0 8.0 0.00 0.00 0.00 19 1016.3
20260904194529 94 60 3.0 9.0 0.00 0.00 0.00 21 1016.4
20260904194015 95 77 6.0 9.0 0.00 0.00 0.00 20 1016.3
20260904193517 95 67 0.0 7.0 0.00 0.00 0.00 20 1016.4
20260904193031 94 229 2.0 9.0 0.00 0.00 0.00 21 1016.5
20260904192515 94 52 3.0 9.0 0.00 0.00 0.00 21 1016.3
20260904192018 94 74 5.0 9.0 0.00 0.00 0.00 21 1016.4
20260904191536 94 75 1.0 11.0 0.00 0.00 0.00 21 1016.5
20260904191010 94 38 1.0 11.0 0.00 0.00 0.00 21 1016.4
20260904190510 94 28 1.0 7.0 0.00 0.00 0.00 23 1016.4
20260904190016 94 76 2.0 9.0 0.00 0.00 0.00 22 1016.6
20260904185509 94 138 2.0 9.0 0.00 0.00 0.00 22 1016.7
20260904185011 94 249 2.0 7.0 0.00 0.00 0.00 23 1016.8
20260904184531 94 234 2.0 7.0 0.00 0.00 0.00 25 1017.0
20260904184013 94 173 2.0 7.0 0.00 0.00 0.00 23 1016.9
20260904183512 94 262 2.0 8.0 0.00 0.00 0.00 21 1017.0
20260904183027 94 102 1.0 8.0 0.00 0.00 0.00 23 1017.1
20260904182525 93 61 2.0 8.0 0.00 0.00 0.00 24 1017.1
20260904182020 93 31 0.0 6.0 0.00 0.00 0.00 23 1017.2
20260904181530 93 133 1.0 8.0 0.00 0.00 0.00 23 1017.3
20260904181016 92 69 1.0 8.0 0.00 0.00 0.00 23 1017.3
20260904180522 92 262 2.0 4.0 0.00 0.00 0.00 26 1017.3
20260904180040 92 300 2.0 7.0 0.00 0.00 0.00 25 1017.5
20260904175512 91 158 3.0 7.0 0.00 0.00 0.00 27 1017.4
20260904175011 92 250 2.0 6.0 0.00 0.00 0.00 25 1017.5
20260904174520 91 148 1.0 5.0 0.00 0.00 0.00 24 1017.6
20260904174010 91 138 2.0 6.0 0.00 0.00 0.00 26 1017.6
20260904173515 90 197 1.0 6.0 0.00 0.00 0.00 25 1017.6
20260904173025 90 308 2.0 5.0 0.00 0.00 0.00 27 1017.7
20260904172516 89 275 1.0 6.0 0.00 0.00 0.00 27 1017.7
20260904172014 89 172 2.0 7.0 0.00 0.00 0.00 29 1017.7
20260904171528 88 200 2.0 7.0 0.00 0.00 0.00 28 1017.7
20260904171015 88 152 2.0 6.0 0.00 0.00 0.00 27 1017.6
20260904170515 88 212 1.0 5.0 0.00 0.00 0.00 28 1017.7
20260904170037 88 157 1.0 5.0 0.00 0.00 0.00 29 1017.7
20260904165519 88 230 1.0 7.0 0.00 0.00 0.00 29 1017.7
20260904165015 87 324 1.0 7.0 0.00 0.00 0.00 29 1017.7
20260904164536 87 53 1.0 7.0 0.00 0.00 0.00 28 1017.7
20260904164009 87 69 2.0 6.0 0.00 0.00 0.00 29 1017.6
20260904163510 86 218 1.0 6.0 0.00 0.00 0.00 30 1017.6
20260904163020 86 357 1.0 5.0 0.00 0.00 0.00 29 1017.6
20260904162512 85 297 1.0 5.0 0.00 0.00 0.00 31 1017.7
20260904162013 85 219 1.0 5.0 0.00 0.00 0.00 29 1017.8
20260904161525 84 180 1.0 4.0 0.00 0.00 0.00 31 1018.0
20260904161015 84 60 1.0 4.0 0.00 0.00 0.00 33 1017.9
20260904160513 83 72 0.0 3.0 0.00 0.00 0.00 33 1017.9
20260904160043 83 206 1.0 3.0 0.00 0.00 0.00 33 1017.9
20260904155516 82 181 1.0 4.0 0.00 0.00 0.00 34 1018.0
20260904155018 82 140 1.0 5.0 0.00 0.00 0.00 32 1017.8
20260904154532 81 191 1.0 5.0 0.00 0.00 0.00 34 1017.7
20260904154017 81 26 1.0 5.0 0.00 0.00 0.00 33 1017.7
20260904153520 80 44 0.0 4.0 0.00 0.00 0.00 34 1017.7
20260904153019 80 201 1.0 4.0 0.00 0.00 0.00 35 1017.7
20260904152514 79 200 1.0 3.0 0.00 0.00 0.00 38 1017.7
20260904152014 78 121 1.0 4.0 0.00 0.00 0.00 37 1017.7
20260904151523 77 135 0.0 4.0 0.00 0.00 0.00 38 1017.6
20260904151015 77 131 0.0 3.0 0.00 0.00 0.00 38 1017.6
20260904150517 76 1 1.0 3.0 0.00 0.00 0.00 40 1017.5
20260904150031 75 93 0.0 3.0 0.00 0.00 0.00 41 1017.5
20260904145516 75 11 0.0 2.0 0.00 0.00 0.00 47 1017.5
20260904145016 74 6 0.0 2.0 0.00 0.00 0.00 49 1017.5
20260904144534 74 2 0.0 0.0 0.00 0.00 0.00 50 1017.5
20260904144019 73 283 0.0 0.0 0.00 0.00 0.00 49 1017.5
20260904143519 72 283 0.0 0.0 0.00 0.00 0.00 47 1017.5
20260904143036 71 279 0.0 0.0 0.00 0.00 0.00 47 1017.5
20260904142519 71 279 0.0 0.0 0.00 0.00 0.00 51 1017.5
20260904142020 70 279 0.0 0.0 0.00 0.00 0.00 54 1017.5
20260904141518 69 279 0.0 0.0 0.00 0.00 0.00 54 1017.5
20260904141011 68 279 0.0 0.0 0.00 0.00 0.00 54 1017.4
20260904140513 67 279 0.0 0.0 0.00 0.00 0.00 54 1017.3
20260904140028 66 279 0.0 0.0 0.00 0.00 0.00 57 1017.2
20260904135517 65 279 0.0 0.0 0.00 0.00 0.00 59 1017.2
20260904135016 64 279 0.0 0.0 0.00 0.00 0.00 59 1017.2
20260904134550 63 279 0.0 0.0 0.00 0.00 0.00 61 1017.1
20260904134018 62 279 0.0 0.0 0.00 0.00 0.00 62 1017.1
20260904133518 61 279 0.0 0.0 0.00 0.00 0.00 64 1017.0
20260904133039 60 279 0.0 0.0 0.00 0.00 0.00 67 1016.9
20260904132521 59 270 0.0 0.0 0.00 0.00 0.00 67 1016.8
20260904132017 58 279 0.0 0.0 0.00 0.00 0.00 68 1016.7
20260904131540 57 270 0.0 0.0 0.00 0.00 0.00 68 1016.7
20260904131018 57 279 0.0 0.0 0.00 0.00 0.00 69 1016.6
20260904130517 56 279 0.0 0.0 0.00 0.00 0.00 69 1016.6
20260904130025 56 279 0.0 1.0 0.00 0.00 0.00 69 1016.6
20260904125512 56 279 0.0 2.0 0.00 0.00 0.00 69 1016.6
20260904125014 56 279 1.0 3.0 0.00 0.00 0.00 69 1016.4
20260904124528 56 270 0.0 3.0 0.00 0.00 0.00 68 1016.3
20260904124015 56 270 0.0 3.0 0.00 0.00 0.00 68 1016.2
20260904123518 56 283 0.0 0.0 0.00 0.00 0.00 67 1016.1
20260904123030 56 270 0.0 0.0 0.00 0.00 0.00 67 1016.1
20260904122518 56 270 0.0 0.0 0.00 0.00 0.00 65 1016.0
20260904122018 56 270 0.0 0.0 0.00 0.00 0.00 65 1015.9
20260904121536 56 270 0.0 0.0 0.00 0.00 0.00 63 1015.8
20260904121018 56 270 0.0 0.0 0.00 0.00 0.00 64 1015.7
20260904120520 57 270 0.0 0.0 0.00 0.00 0.00 65 1015.7
20260904120036 57 270 0.0 0.0 0.00 0.00 0.00 64 1015.6
20260904115519 57 270 0.0 0.0 0.00 0.00 0.00 64 1015.6
20260904115014 57 270 0.0 0.0 0.00 0.00 0.00 64 1015.5
20260904114528 57 270 0.0 0.0 0.00 0.00 0.00 63 1015.5
20260904114017 57 270 0.0 0.0 0.00 0.00 0.00 63 1015.6
20260904113519 57 270 0.0 1.0 0.00 0.00 0.00 63 1015.6
20260904113030 57 270 0.0 1.0 0.00 0.00 0.00 64 1015.6
20260904112519 57 270 0.0 1.0 0.00 0.00 0.00 63 1015.6
20260904112015 58 270 0.0 1.0 0.00 0.00 0.00 63 1015.6
20260904111538 58 287 0.0 1.0 0.00 0.00 0.00 63 1015.6
20260904111017 58 270 0.0 3.0 0.00 0.00 0.00 62 1015.6
20260904110517 58 286 0.0 3.0 0.00 0.00 0.00 62 1015.6
20260904110033 58 288 0.0 1.0 0.00 0.00 0.00 61 1015.7
20260904105522 58 270 0.0 3.0 0.00 0.00 0.00 62 1015.7
20260904105021 58 287 1.0 3.0 0.00 0.00 0.00 60 1015.6
20260904104534 58 287 0.0 0.0 0.00 0.00 0.00 60 1015.6
20260904104017 59 284 0.0 0.0 0.00 0.00 0.00 59 1015.6
20260904103517 59 270 0.0 0.0 0.00 0.00 0.00 59 1015.6
20260904103030 59 270 0.0 1.0 0.00 0.00 0.00 58 1015.6
20260904102518 59 270 0.0 1.0 0.00 0.00 0.00 58 1015.5
20260904102018 60 279 0.0 0.0 0.00 0.00 0.00 58 1015.4
20260904101531 60 279 0.0 0.0 0.00 0.00 0.00 58 1015.5
20260904101005 60 279 0.0 0.0 0.00 0.00 0.00 58 1015.4
20260904100507 60 279 0.0 0.0 0.00 0.00 0.00 57 1015.4
20260904100015 60 279 0.0 0.0 0.00 0.00 0.00 57 1015.4
20260904095513 61 279 0.0 1.0 0.00 0.00 0.00 57 1015.5
20260904095012 61 279 0.0 1.0 0.00 0.00 0.00 57 1015.4
20260904094534 61 279 0.0 1.0 0.00 0.00 0.00 57 1015.5
20260904094013 61 279 0.0 3.0 0.00 0.00 0.00 56 1015.4
20260904093504 61 279 0.0 3.0 0.00 0.00 0.00 56 1015.4
20260904093005 62 279 1.0 3.0 0.00 0.00 0.00 56 1015.4
20260904092503 62 279 1.0 3.0 0.00 0.00 0.00 57 1015.4
20260904092005 62 287 1.0 3.0 0.00 0.00 0.00 58 1015.5
20260904091506 62 287 0.0 0.0 0.00 0.00 0.00 57 1015.5
20260904091005 62 287 0.0 1.0 0.00 0.00 0.00 57 1015.4
20260904090505 62 287 0.0 3.0 0.00 0.00 0.00 56 1015.4
20260904090027 62 287 0.0 3.0 0.00 0.00 0.00 57 1015.4
20260904085507 63 275 1.0 3.0 0.00 0.00 0.00 57 1015.4
20260904085009 63 275 1.0 3.0 0.00 0.00 0.00 58 1015.5
20260904084516 63 279 0.0 0.0 0.00 0.00 0.00 57 1015.4
20260904084015 63 279 0.0 0.0 0.00 0.00 0.00 57 1015.4
20260904083512 64 279 0.0 1.0 0.00 0.00 0.00 57 1015.5
20260904083039 64 279 0.0 2.0 0.00 0.00 0.00 58 1015.5
20260904082516 64 279 0.0 2.0 0.00 0.00 0.00 57 1015.4
20260904082003 64 285 0.0 2.0 0.00 0.00 0.00 55 1015.5
20260904081528 64 285 0.0 2.0 0.00 0.00 0.00 55 1015.5
20260904081002 64 279 0.0 4.0 0.00 0.00 0.00 55 1015.4
20260904080507 65 275 1.0 4.0 0.00 0.00 0.00 54 1015.5
20260904080009 65 275 1.0 3.0 0.00 0.00 0.00 54 1015.5
20260904075506 65 285 0.0 3.0 0.00 0.00 0.00 56 1015.6
20260904075007 65 281 0.0 3.0 0.00 0.00 0.00 54 1015.4
20260904074513 65 275 0.0 3.0 0.00 0.00 0.00 52 1015.3
20260904074010 66 275 0.0 3.0 0.00 0.00 0.00 53 1015.4
20260904073511 66 279 1.0 3.0 0.00 0.00 0.00 52 1015.4
20260904073023 66 279 0.0 2.0 0.00 0.00 0.00 53 1015.4
20260904072512 66 279 0.0 2.0 0.00 0.00 0.00 53 1015.4
20260904072016 67 279 0.0 1.0 0.00 0.00 0.00 52 1015.4
20260904071527 67 284 0.0 1.0 0.00 0.00 0.00 51 1015.4
20260904071015 67 279 0.0 1.0 0.00 0.00 0.00 50 1015.3
20260904070506 68 279 0.0 1.0 0.00 0.00 0.00 50 1015.1
20260904070004 68 279 0.0 1.0 0.00 0.00 0.00 49 1014.9
20260904065505 68 279 0.0 1.0 0.00 0.00 0.00 49 1014.8
20260904065010 69 279 0.0 1.0 0.00 0.00 0.00 48 1014.8
20260904064520 69 279 0.0 1.0 0.00 0.00 0.00 48 1014.8
20260904064007 69 280 0.0 1.0 0.00 0.00 0.00 47 1014.7
20260904063509 70 281 0.0 1.0 0.00 0.00 0.00 46 1014.7
20260904063017 70 281 0.0 2.0 0.00 0.00 0.00 46 1014.8
20260904062511 70 281 0.0 2.0 0.00 0.00 0.00 45 1014.6
20260904062014 71 281 1.0 2.0 0.00 0.00 0.00 45 1014.5
20260904061529 71 282 0.0 3.0 0.00 0.00 0.00 45 1014.6
20260904061014 71 270 0.0 3.0 0.00 0.00 0.00 45 1014.6
20260904060516 71 270 0.0 3.0 0.00 0.00 0.00 44 1014.7
20260904060034 71 270 0.0 3.0 0.00 0.00 0.00 43 1014.6
20260904055505 71 270 1.0 3.0 0.00 0.00 0.00 43 1014.6
20260904055004 71 280 1.0 2.0 0.00 0.00 0.00 43 1014.7
20260904054524 72 275 0.0 3.0 0.00 0.00 0.00 43 1014.8
20260904054007 72 275 0.0 3.0 0.00 0.00 0.00 43 1014.8
20260904053508 72 279 0.0 3.0 0.00 0.00 0.00 43 1014.9
20260904053034 72 275 0.0 4.0 0.00 0.00 0.00 43 1014.8
20260904052510 72 279 1.0 4.0 0.00 0.00 0.00 43 1014.8
20260904052010 72 279 0.0 3.0 0.00 0.00 0.00 42 1014.7
20260904051535 72 279 0.0 3.0 0.00 0.00 0.00 42 1014.8
20260904051013 72 275 1.0 3.0 0.00 0.00 0.00 41 1014.8
20260904050513 72 275 1.0 3.0 0.00 0.00 0.00 41 1014.8
20260904050035 72 279 0.0 3.0 0.00 0.00 0.00 40 1014.9
20260904045514 72 275 1.0 3.0 0.00 0.00 0.00 41 1014.9
20260904045014 72 270 0.0 2.0 0.00 0.00 0.00 40 1014.9
20260904044530 72 270 0.0 3.0 0.00 0.00 0.00 40 1015.0
20260904044006 72 270 0.0 3.0 0.00 0.00 0.00 39 1014.9
20260904043506 73 275 1.0 4.0 0.00 0.00 0.00 39 1015.0
20260904043011 73 270 0.0 5.0 0.00 0.00 0.00 38 1015.1
20260904042506 73 270 1.0 5.0 0.00 0.00 0.00 38 1015.2
20260904042009 73 270 1.0 4.0 0.00 0.00 0.00 38 1015.2
20260904041515 74 270 0.0 4.0 0.00 0.00 0.00 38 1015.3
20260904041010 74 279 2.0 5.0 0.00 0.00 0.00 37 1015.3
20260904040511 74 285 0.0 5.0 0.00 0.00 0.00 37 1015.3
20260904040023 75 279 0.0 4.0 0.00 0.00 0.00 37 1015.3
20260904035511 75 287 0.0 3.0 0.00 0.00 0.00 36 1015.4
20260904035016 76 285 0.0 4.0 0.00 0.00 0.00 36 1015.4
20260904034530 76 275 1.0 4.0 0.00 0.00 0.00 35 1015.5
20260904034018 76 275 1.0 4.0 0.00 0.00 0.00 35 1015.5
20260904033516 76 275 0.0 4.0 0.00 0.00 0.00 35 1015.5
20260904033030 76 279 0.0 3.0 0.00 0.00 0.00 35 1015.4
20260904032507 76 287 1.0 4.0 0.00 0.00 0.00 35 1015.3
20260904032008 77 279 0.0 5.0 0.00 0.00 0.00 35 1015.3
20260904031535 77 279 1.0 5.0 0.00 0.00 0.00 35 1015.3
20260904031010 77 279 2.0 5.0 0.00 0.00 0.00 35 1015.2
20260904030510 77 270 1.0 4.0 0.00 0.00 0.00 35 1015.1
20260904030019 77 275 1.0 4.0 0.00 0.00 0.00 36 1015.1
20260904025511 78 279 1.0 3.0 0.00 0.00 0.00 36 1015.0
20260904025012 78 287 0.0 2.0 0.00 0.00 0.00 36 1015.1
20260904024526 78 283 0.0 1.0 0.00 0.00 0.00 36 1015.0
20260904024015 78 283 0.0 1.0 0.00 0.00 0.00 36 1015.0
20260904023518 79 283 0.0 0.0 0.00 0.00 0.00 35 1015.0
20260904023033 79 284 0.0 0.0 0.00 0.00 0.00 35 1015.0
20260904022516 79 283 0.0 0.0 0.00 0.00 0.00 34 1014.9
20260904022016 80 283 0.0 0.0 0.00 0.00 0.00 34 1014.9
20260904021514 80 283 0.0 0.0 0.00 0.00 0.00 34 1014.9
20260904021009 81 283 0.0 0.0 0.00 0.00 0.00 33 1014.8
20260904020508 81 283 0.0 0.0 0.00 0.00 0.00 33 1014.7
20260904020018 81 283 0.0 0.0 0.00 0.00 0.00 31 1014.6
20260904015513 82 286 0.0 0.0 0.00 0.00 0.00 30 1014.6
20260904015013 82 284 0.0 0.0 0.00 0.00 0.00 30 1014.6
20260904014524 82 283 0.0 0.0 0.00 0.00 0.00 30 1014.6
20260904014014 83 286 0.0 1.0 0.00 0.00 0.00 30 1014.6
20260904013513 83 284 0.0 2.0 0.00 0.00 0.00 29 1014.5
20260904013029 84 286 0.0 2.0 0.00 0.00 0.00 28 1014.5
20260904012517 84 25 0.0 3.0 0.00 0.00 0.00 28 1014.5
20260904012017 84 112 0.0 3.0 0.00 0.00 0.00 27 1014.5
20260904011538 85 359 0.0 4.0 0.00 0.00 0.00 27 1014.5
20260904011006 85 33 1.0 4.0 0.00 0.00 0.00 27 1014.4
20260904010508 86 202 0.0 9.0 0.00 0.00 0.00 26 1014.4
20260904010012 86 236 0.0 9.0 0.00 0.00 0.00 26 1014.4
20260904005508 86 24 1.0 6.0 0.00 0.00 0.00 26 1014.3
20260904005009 86 281 0.0 6.0 0.00 0.00 0.00 26 1014.3
20260904004534 87 69 3.0 7.0 0.00 0.00 0.00 25 1014.3
20260904004014 87 338 3.0 7.0 0.00 0.00 0.00 25 1014.3
20260904003513 87 70 2.0 8.0 0.00 0.00 0.00 24 1014.2
20260904003026 87 76 4.0 8.0 0.00 0.00 0.00 24 1014.3
20260904002514 87 71 0.0 7.0 0.00 0.00 0.00 24 1014.2
20260904002017 88 73 2.0 7.0 0.00 0.00 0.00 24 1014.2
20260904001506 88 73 3.0 7.0 0.00 0.00 0.00 24 1014.1
20260904001005 88 45 1.0 5.0 0.00 0.00 0.00 23 1014.1
20260904000503 88 79 2.0 5.0 0.00 0.00 0.00 23 1014.1
20260904000010 88 64 0.0 2.0 0.00 0.00 0.00 22 1014.1
20260903235511 88 72 0.0 3.0 0.00 0.00 0.00 22 1014.1
20260903235009 88 222 1.0 6.0 0.00 0.00 0.00 22 1014.1
20260903234515 88 199 0.0 6.0 0.00 0.00 0.00 22 1014.2
20260903234012 88 69 2.0 6.0 0.00 0.00 0.00 22 1014.2
20260903233510 88 244 1.0 6.0 0.00 0.00 0.00 22 1014.2
20260903233020 88 59 0.0 7.0 0.00 0.00 0.00 22 1014.2
20260903232512 88 63 3.0 8.0 0.00 0.00 0.00 22 1014.2
20260903232016 88 60 3.0 8.0 0.00 0.00 0.00 23 1014.3
20260903231526 88 240 1.0 6.0 0.00 0.00 0.00 22 1014.3
20260903231015 89 49 2.0 7.0 0.00 0.00 0.00 22 1014.3
20260903230505 89 198 0.0 7.0 0.00 0.00 0.00 22 1014.3
20260903230007 89 215 0.0 8.0 0.00 0.00 0.00 22 1014.3
20260903225505 89 52 1.0 8.0 0.00 0.00 0.00 21 1014.4
20260903225004 89 63 2.0 8.0 0.00 0.00 0.00 21 1014.4
20260903224518 89 57 3.0 7.0 0.00 0.00 0.00 22 1014.4
20260903224008 90 71 2.0 8.0 0.00 0.00 0.00 21 1014.5
20260903223511 90 48 2.0 10.0 0.00 0.00 0.00 21 1014.5
20260903223023 90 69 3.0 10.0 0.00 0.00 0.00 22 1014.5
20260903222512 90 63 4.0 12.0 0.00 0.00 0.00 23 1014.6
20260903222013 90 55 4.0 12.0 0.00 0.00 0.00 22 1014.6
20260903221526 90 218 2.0 8.0 0.00 0.00 0.00 22 1014.7
20260903221012 90 227 1.0 8.0 0.00 0.00 0.00 23 1014.7
20260903220514 90 79 1.0 9.0 0.00 0.00 0.00 21 1014.8
20260903220030 90 338 3.0 9.0 0.00 0.00 0.00 22 1014.8
20260903215518 91 40 3.0 10.0 0.00 0.00 0.00 23 1014.7
20260903215004 91 62 5.0 10.0 0.00 0.00 0.00 22 1014.6
20260903214513 91 200 1.0 8.0 0.00 0.00 0.00 22 1014.7
20260903214009 91 79 3.0 11.0 0.00 0.00 0.00 20 1014.8
20260903213513 91 54 1.0 11.0 0.00 0.00 0.00 22 1014.8
20260903213014 91 252 2.0 9.0 0.00 0.00 0.00 23 1014.9
20260903212510 91 76 5.0 9.0 0.00 0.00 0.00 22 1014.9
20260903212012 91 14 1.0 13.0 0.00 0.00 0.00 22 1014.9
20260903211534 91 169 2.0 13.0 0.00 0.00 0.00 24 1014.9
20260903211014 91 62 2.0 12.0 0.00 0.00 0.00 22 1015.0
20260903210515 91 64 4.0 12.0 0.00 0.00 0.00 23 1015.0
20260903210027 91 83 3.0 12.0 0.00 0.00 0.00 22 1015.1
20260903205517 91 77 2.0 10.0 0.00 0.00 0.00 22 1015.2
20260903205013 92 194 2.0 9.0 0.00 0.00 0.00 22 1015.2
20260903204534 92 237 2.0 9.0 0.00 0.00 0.00 23 1015.3
20260903204004 92 52 3.0 9.0 0.00 0.00 0.00 22 1015.4
20260903203513 92 187 3.0 10.0 0.00 0.00 0.00 23 1015.4
20260903203011 92 2 1.0 10.0 0.00 0.00 0.00 23 1015.5
20260903202511 93 54 3.0 10.0 0.00 0.00 0.00 22 1015.5
20260903202012 93 142 3.0 10.0 0.00 0.00 0.00 24 1015.5
20260903201536 93 206 3.0 9.0 0.00 0.00 0.00 23 1015.6